Location: Kawakawa
(35.3830°S, 174.0670°E)
Time: 19:21:59
(UTC+13:00)

Mayak - Pass Details

Date: 24 January 2019
Orbit: 582 x 604 km, 97.6° (Epoch: 16 February)

Event Time Altitude Azimuth Distance (km) Brightness Sun altitude
Exits shadow 22:46:28 18° 124° (SE) 1,480 0.7 -22.2°
Drops below altitude 10° 22:48:43 10° 156° (SSE) 1,940 1.7 -22.6°
Sets 22:51:25 0° 173° (S) 2,854 2.9 -22.9°
